Orbital Elements at Epoch 2459200.5 (2020-Dec-17.0) TDB
Reference: JPL 22 (heliocentric ecliptic J2000)
Element | Value | Uncertainty (1-sigma) | Units |
e | .2802049145346613 | 4.0737e-08 | |
a | 2.612464697423498 | 1.7647e-08 | au |
q | 1.880439250157127 | 1.1164e-07 | au |
i | 4.070734908522385 | 4.1393e-06 | deg |
node | 231.4742906593824 | 6.1923e-05 | deg |
peri | 159.63384441981 | 6.2597e-05 | deg |
M | 228.3455851312252 | 1.4455e-05 | deg |
tp | 2459764.536227302956 (2022-Jul-04.03622730) | 6.6991e-05 | TDB |
period | 1542.318516484658 4.22 | 1.5627e-05 4.278e-08 | d yr |
n | .2334148207080681 | 2.365e-09 | deg/d |
Q | 3.344490144689868 | 2.2592e-08 | au |
|
| | Orbit Determination Parameters
Additional Information
|